Regional Weather Roundup
Issued by NWS Charleston, SC

Current Version | Previous Version | Graphics & Text | Print | Product List | Glossary On
Versions: 1 2 3 4 5 6 7 8 9 10 11 12 13 14 15 16 17 18 19 20 21 22 23 24 25 26 27 28 29 30 31 32 33 34 35 36 37 38 39 40 41 42 43 44 45 46 47 48 49 50
489
ASUS42 KCHS 211627
RWRCHS

REGIONAL WEATHER ROUNDUP
NATIONAL WEATHER SERVICE CHARLESTON SC
1200 PM EDT THU MAY 21 2015

NOTE: "FAIR" INDICATES FEW OR NO CLOUDS BELOW 12,000 FEET WITH NO
SIGNIFICANT WEATHER AND/OR OBSTRUCTIONS TO VISIBILITY.

NOT ALL STATIONS ARE QUALITY CONTROLLED BY THE NATIONAL
WEATHER SERVICE. USE DATA WITH CAUTION...ESPECIALLY
DEWPOINT OBSERVATIONS.

SCZ027-030-031-034>040-042>050-211700-
...SOUTHEAST SOUTH CAROLINA...

CITY           SKY/WX    TMP DP  RH WIND       PRES   REMARKS
N CHARLESTON   MOSUNNY   86  70  58 W10       29.86F HX  90
WATERFRONT PAR   N/A     84  71  65 W5        29.84S
MOUNT PLEASANT FAIR      86  72  62 SW10      29.85F HX  92
JOHNS ISLAND   SUNNY     86  72  62 W8        29.86F HX  92
PINOPOLIS      NOT AVBL
MONCKS CORNER  FAIR      88  68  51 W8        29.84F HX  91
SUMMERVILLE    FAIR      86  68  54 SW7       29.85F
BEAUFORT MCAS  SUNNY     86  66  51 W15G24    29.88F
BEAUFORT ARPT  FAIR      86  70  58 W14G21    29.88S HX  90
HILTON HEAD IS SUNNY     82  66  57 SW9G17    29.90F
WALTERBORO     MOSUNNY   84  64  51 W18       29.86F
ALLENDALE      FAIR      84  66  54 W8G17     29.87F

...SOUTHERN MIDLANDS AND PEE DEE...

CITY           SKY/WX    TMP DP  RH WIND       PRES   REMARKS
GEORGETOWN     NOT AVBL
KINGSTREE      NOT AVBL
ORANGEBURG     MOSUNNY   84  66  54 W16G24    29.86S
BARNWELL       CLOUDY    86  66  51 SW13G18   29.87F
AIKEN          FAIR      82  61  47 W10G20    29.91F
MANNING        PTSUNNY   82  55  39 SW14      29.83S
COLUMBIA       PTSUNNY   84  65  52 W13       29.84S
SUMTER         MOSUNNY   85  65  50 SW14G23   29.82S
FLORENCE       PTSUNNY   86  70  58 SW8       29.81F HX  90
MYRTLE BEACH   MOSUNNY   82  72  69 S12       29.85F
N MYRTLE BEACH MOSUNNY   79  72  79 SE13      29.84F

$$

GAZ063-065-086>088-099>101-113>116-118-119-134>141-150-211700-
...SOUTHEAST GEORGIA...

CITY           SKY/WX    TMP DP  RH WIND       PRES   REMARKS
SAVANNAH ARPT  PTSUNNY   85  64  49 W16       29.91S
HUNTER AAF     SUNNY     87  65  48 W17G25    29.89S
FORT STEWART   MOSUNNY   86  63  45 SW14      29.90F
STATESBORO     SUNNY     85  67  55 NW9G20    29.91S
SYLVANIA       SUNNY     87  67  49 W8G17     29.91F HX  90
CLAXTON        FAIR      84  66  54 W9        29.92F

...CSRA...CENTRAL AND FAR SOUTHEAST GEORGIA...

CITY           SKY/WX    TMP DP  RH WIND       PRES   REMARKS
THOMSON        SUNNY     84  65  52 W10G17    29.95F
AUGUSTA-BUSH   SUNNY     84  63  49 W14G22    29.88S
AUGUSTA-DANIEL SUNNY     84  62  47 W9G18     29.90S
SWAINSBORO     FAIR      86  64  48 W12G18    29.94S
VIDALIA        SUNNY     82  64  54 NW10G16   29.94F
EASTMAN        FAIR      85  65  52 NW8       29.98F
HAZLEHURST     FAIR      86  66  51 W8        29.95S
ALMA           SUNNY     84  63  49 W9        29.96S
WAYCROSS       SUNNY     88  66  48 NW13      29.95F HX  90
JESUP          FAIR      90  66  45 NW13G21   29.93F HX  92
BAXLEY         FAIR      86  64  48 NW12      29.95F
BRUNSWICK      SUNNY     88  63  42 W16       29.94F
SAINT SIMONS   NOT AVBL

$$

SCZ027-028-034-036>038-045-046-048>050-GAZ119-141-211700-
...LAKE AND SUPPLEMENTAL COASTAL OBSERVATIONS...

STATION/POSITION TIME  TEMP    WIND        PRES    WAVE   SWELL
                       AIR SEA DIR/SP/G            HT/PER HT/PER/DIR
                 (UTC) (F)     (DEG/KT/KT) (MB)    (FT/S) (FT/S/D)
UPR LAKE MARION  NOT AVBL
WINYAH BAY       1545   84     220/  7     1009.0F
LAKE MURRAY      1500   77     250/ 12/ 17 1010.2S
ACE BASIN NERRS  1500   82     260/  4     1012.0
FORT PULASKI     1600   82 78  280/ 17/ 19 1012.8F
SAPELO ISLAND    1600   85     290/ 11     1013.0F

$$

ANZ835-935-AMZ111-154-330-350-352-354-370-450-454-472-211700-
...C-MAN AND BUOY OBSERVATIONS...

STATION/POSITION TIME  TEMP    WIND        PRES    WAVE   SWELL
                       AIR SEA DIR/SP/G            HT/PER HT/PER/DIR
                 (UTC) (F)     (DEG/KT/KT) (MB)    (FT/S) (FT/S/D)
BUOY 41004       1550   77 76  230/ 14/ 17 1010.9R   3/ 5   2/ 8
BUOY 41008       1550   78 77  270/  8/ 10 1013.6R   2/ 3   2/120/ 9
FOLLY BEACH CMAN 1600   84     240/  7/ 10 1011.1F
CAPERS NEARSHORE 1508   77     230/ 12/ 16 1011.3S
FRIPP NEARSHORE  1500   78     270/ 10/ 14 1012.1R


STATION/POSITION TIME  TEMP    WIND        PRES    WAVE   SWELL
                       AIR SEA DIR/SP/G            HT/PER HT/PER/DIR
                 (UTC) (F)     (DEG/KT/KT) (MB)    (FT/S) (FT/S/D)
5E ST. MARYS GA  1521      77                N/A     1/ 8
FRYING PAN BUOY  1550   78 76  180/  6/  8 1011.7F   2/ 5   2/170/ 5
BUOY 41025       1550   74 77  130/ 17/ 21 1012.0F   4/ 9   2/ 60/ 9
CAPE LOOKOUT NC  1600   74     130/ 11/ 12 1011.1F
BUOY 41002       1550   75 75  200/ 12/ 14 1014.6R   3/ 5   2/ 60/ 9
BUOY 41010       1520   80 79  250/ 10/ 12 1015.9R
ST AUGUSTINE FL  1600   84 71  270/  7/ 10 1015.5F


$$



USA.gov is the U.S. government's official web portal to all federal, state and local government web resources and services.